Location: Podia
(1.5569°N, 32.3469°E)
Time: 11:51:52
(UTC+00:00)

Courier 1B - Visible Passes

Search period start: 26 September 2020 00:00
Search period end: 06 October 2020 00:00
Orbit: 962 x 1209 km, 28.3° (Epoch: 26 September)

Date Brightness Start Highest point End Pass type
(mag) Time Alt. Az. Time Alt. Az. Time Alt. Az.
26 Sep 8.0 16:58:52 10° SW 17:06:34 65° SSE 17:09:50 37° E visible
26 Sep 9.7 18:53:46 10° W 18:56:45 23° W 18:56:45 23° W visible
27 Sep 9.6 02:40:17 10° NNW 02:44:59 19° NNE 02:49:33 10° ENE visible
27 Sep 8.4 16:05:13 10° SW 16:12:32 48° SSE 16:19:50 11° ENE visible
27 Sep 8.3 17:59:22 10° WSW 18:06:45 56° NW 18:06:45 56° NW visible
28 Sep 9.8 01:47:27 11° N 01:50:54 15° NNE 01:54:32 10° NE visible
28 Sep 8.0 17:05:14 10° WSW 17:12:58 76° NNW 17:16:45 34° NE visible
28 Sep 10.1 19:01:30 10° WNW 19:03:40 17° WNW 19:03:40 17° WNW visible
29 Sep 10.0 00:57:21 11° NNE 00:57:21 11° NNE 00:58:57 10° NE visible
29 Sep 8.9 02:45:39 10° NW 02:51:48 34° NNE 02:57:40 10° E visible
29 Sep 7.9 16:11:20 10° WSW 16:18:58 82° SSE 16:26:44 10° ENE visible
29 Sep 9.0 18:06:42 10° W 18:13:34 33° NNW 18:13:39 33° NNW visible
30 Sep 9.2 01:54:13 17° NNW 01:57:51 26° NNE 02:03:16 10° E visible
30 Sep 8.7 17:12:12 10° W 17:19:27 44° NNW 17:23:36 25° NNE visible
30 Sep 10.4 19:10:12 10° NW 19:10:31 11° NW 19:10:31 11° NW visible
01 Oct 9.5 01:04:11 20° NNE 01:04:11 20° NNE 01:08:35 10° ENE visible
01 Oct 8.0 02:51:32 10° NW 02:58:25 63° NNE 03:04:55 10° ESE visible
01 Oct 8.4 16:17:58 10° WSW 16:25:24 59° NNW 16:33:06 10° NE visible
01 Oct 9.6 18:14:50 10° WNW 18:20:21 21° NNW 18:20:25 21° NNW visible
02 Oct 8.4 02:01:06 27° NNW 02:04:33 45° NNE 02:10:56 10° E visible
02 Oct 9.4 17:19:53 10° W 17:26:07 27° NNW 17:30:16 17° NNE visible
03 Oct 8.8 01:11:06 33° NE 01:11:06 33° NE 01:16:44 10° E visible
03 Oct 7.7 02:58:01 11° WNW 03:04:54 72° SSW 03:11:31 10° SE visible
03 Oct 9.1 16:25:15 10° W 16:31:57 35° NNW 16:38:55 10° NE visible
03 Oct 10.1 18:24:07 10° NW 18:26:59 13° NNW 18:26:59 13° NNW visible
04 Oct 10.1 00:21:05 14° ENE 00:21:05 14° ENE 00:22:16 10° ENE visible
04 Oct 7.6 02:08:00 37° NW 02:11:06 82° NNE 02:17:52 10° ESE visible
04 Oct 9.9 17:28:29 10° WNW 17:33:02 16° NNW 17:36:44 12° N visible
05 Oct 8.1 01:17:58 57° ENE 01:17:58 57° ENE 01:24:02 10° ESE visible
05 Oct 8.3 03:04:54 10° W 03:11:23 39° SSW 03:17:34 10° SE visible
05 Oct 9.7 16:33:20 10° WNW 16:38:46 21° NNW 16:44:20 10° NNE visible
